Location: Newark
(44.6833°N, 7.1833°E)
Time: 19:44:04
(UTC+00:00)

N. Korean satellite - Visible Passes

Search period start: 21 January 2020 00:00
Search period end: 31 January 2020 00:00
Orbit: 454 x 507 km, 97.2° (Epoch: 21 January)

Date Brightness Start Highest point End Pass type
(mag) Time Alt. Az. Time Alt. Az. Time Alt. Az.
21 Jan 9.8 04:21:19 10° ENE 04:23:10 14° E 04:25:02 10° ESE visible
21 Jan 6.9 05:53:24 10° N 05:56:44 39° WNW 06:00:05 10° SW visible
22 Jan 6.4 05:27:44 10° N 05:31:17 86° WNW 05:34:53 10° SSW visible
22 Jan 10.0 17:40:29 10° WSW 17:41:47 12° W 17:43:06 10° WNW visible
23 Jan 7.8 05:02:21 10° NNE 05:05:47 43° E 05:09:13 10° S visible
23 Jan 9.2 17:13:18 10° SSW 17:16:05 23° W 17:18:55 10° NW visible
24 Jan 9.2 04:37:21 10° NE 04:40:10 21° E 04:43:00 10° SSE visible
24 Jan 7.6 06:10:33 10° NNW 06:13:31 25° WNW 06:16:31 10° SW visible
25 Jan 10.1 04:13:25 10° ENE 04:14:28 11° E 04:15:32 10° ESE visible
25 Jan 6.7 05:44:40 10° N 05:48:09 51° WNW 05:51:39 10° SSW visible
26 Jan 6.7 05:19:06 10° NNE 05:22:41 74° ESE 05:26:18 10° S visible
26 Jan 9.8 17:31:03 10° SW 17:33:04 15° W 17:35:06 10° NW visible
27 Jan 8.3 04:53:49 10° NNE 04:57:08 34° E 05:00:28 10° SSE visible
27 Jan 8.8 17:04:22 10° SSW 17:07:23 29° W 17:10:28 10° NNW visible
28 Jan 9.5 04:29:00 10° NE 04:31:29 18° E 04:34:00 10° SE visible
28 Jan 7.3 06:01:43 10° N 06:04:57 31° WNW 06:08:12 10° SW visible
29 Jan 6.5 05:35:57 10° N 05:39:32 66° WNW 05:43:09 10° SSW visible
30 Jan 7.2 05:10:28 10° NNE 05:14:02 57° E 05:17:39 10° S visible
30 Jan 9.6 17:21:51 10° SW 17:24:20 19° W 17:26:51 10° NW visible
